Content
SEND FEEDBACK

Daily
Averages
Monthly
Summary
United States of America

RAPID CITY, SOUTH DAKOTA


Home > North America > United States > South Dakota
Elevation: 3162 feet     Latitude: 44 03N     Longitude: 103 04W

WEATHER
 
SELECT A DAY
Number of Records: 200,306;   Date Range: 1/1/95 - 7/26/14
 
SHARE

PRINT THIS DATA

[ ← Previous Day ]
WEATHER ALMANAC - AUGUST 1, 2013
[ Next Day → ]
[ °C ]   °F
Weather ElementAverageHighLow
Temperature68.1 °F79 °F (4:52 pm)55.9 °F (5:52 am)
Dewpoint56.5 °F64 °F (2:52 pm)48.9 °F (5:52 am)
Humidity67.3 %88 % (1:16 pm)42 % (4:52 pm)
Barometer30.00 in30.12 in (9:40 am)29.87 in (5:52 pm)
Wind Speed9 mph23 mph (8:59 am)
Wind Gust29.9 mph (8:52 am)
Weather ElementAverage
Visibility9.5 mi
Wind DirectionESE (128.3 °)

Weather ElementTotal
Precipitation0.55 in
Cooling Degree Days2.5 (Base 65)
Growing Degree Days17.5 (Base 50)
Averaged from 36 records on August 1, 2013
WEATHER CONDITIONS BREAKOUT
WIND DIRECTION BREAKOUT
WEATHER BY HOUR - AUGUST 1, 2013
[ °C ]   °F
Local TimeTemperatureDewpointHumidityBarometerVisibilityWind DirectionWind SpeedGust SpeedPrecipitationEventsConditions
1:52 AM62.1 °F50.0 °F65 %30.06 in10.0 miCalmClear
2:52 AM60.1 °F51.1 °F72 %30.05 in10.0 miNorth (350°)5.8 mphClear
3:52 AM59.0 °F50.0 °F72 %30.03 in10.0 miCalmClear
4:52 AM60.1 °F50.0 °F69 %30.02 in10.0 miEast (100°)3.5 mphClear
5:52 AM55.9 °F48.9 °F77 %30.01 in10.0 miCalmClear
6:52 AM66.0 °F53.1 °F63 %30.01 in10.0 miCalmPartly Cloudy
7:52 AM70.0 °F53.1 °F55 %30.00 in10.0 miCalmPartly Cloudy
8:37 AM71.6 °F51.8 °F50 %30.11 in10.0 miWNW (290°)12.7 mphThunderstormMostly Cloudy
8:52 AM61.0 °F55.0 °F81 %30.05 in4.0 miNorth (350°)18.4 mph29.9 mph0.02 inRain-ThunderstormLight Thunderstorms and Rain
8:59 AM60.8 °F55.4 °F82 %30.09 in4.0 miNorth (10°)23.0 mph0.03 inRain-ThunderstormLight Thunderstorms and Rain
9:21 AM60.8 °F55.4 °F82 %30.10 in10.0 miVariable4.6 mph0.03 inOvercast
9:40 AM60.8 °F55.4 °F82 %30.12 in10.0 miNNW (330°)12.7 mph0.03 inThunderstormMostly Cloudy
9:52 AM61.0 °F55.0 °F81 %30.01 in10.0 miNE (40°)15.0 mph23.0 mph0.03 inRain-ThunderstormLight Thunderstorms and Rain
10:05 AM66.2 °F57.2 °F73 %30.06 in10.0 miNE (40°)11.5 mph20.7 mph0.00 inScattered Clouds
10:52 AM72.0 °F57.0 °F59 %30.00 in10.0 miWSW (250°)4.6 mph0.00 inClear
11:52 AM72.0 °F59.0 °F64 %30.01 in10.0 miNorth (360°)16.1 mphScattered Clouds
11:59 AM71.6 °F57.2 °F60 %30.07 in10.0 miNNW (340°)18.4 mphMostly Cloudy
12:08 PM71.6 °F57.2 °F60 %30.08 in10.0 miNorth (350°)19.6 mph25.3 mphThunderstormMostly Cloudy
12:33 PM69.8 °F57.2 °F64 %30.08 in10.0 miNorth (10°)15.0 mphOvercast
12:43 PM69.8 °F57.2 °F64 %30.06 in10.0 miNNE (30°)12.7 mphThunderstormOvercast
12:52 PM68.0 °F57.9 °F70 %30.04 in9.0 miNorth (350°)4.6 mphThunderstormThunderstorm
1:16 PM64.4 °F60.8 °F88 %30.02 in10.0 miESE (120°)6.9 mph27.6 mph0.12 inThunderstormThunderstorm
1:32 PM69.8 °F60.8 °F73 %30.04 in10.0 miNE (50°)6.9 mph0.12 inRainLight Rain
1:52 PM73.0 °F62.1 °F68 %29.99 in10.0 miVariable3.5 mph0.13 inPartly Cloudy
2:23 PM73.4 °F60.8 °F65 %30.04 in10.0 miNE (40°)6.9 mphThunderstormThunderstorm
2:52 PM70.0 °F64.0 °F81 %29.97 in4.0 miSSE (160°)12.7 mph0.04 inRain-ThunderstormLight Thunderstorms and Rain
3:00 PM69.8 °F62.6 °F78 %30.00 in10.0 miSE (130°)11.5 mph0.00 inMostly Cloudy
3:52 PM75.9 °F57.9 °F54 %29.95 in10.0 miESE (120°)8.1 mph0.00 inPartly Cloudy
4:52 PM79.0 °F54.0 °F42 %29.89 in10.0 miESE (120°)6.9 mphClear
5:52 PM79.0 °F59.0 °F50 %29.87 in10.0 miENE (70°)9.2 mphClear
6:52 PM78.1 °F57.9 °F50 %29.87 in10.0 miENE (70°)10.4 mphClear
7:52 PM72.0 °F57.9 °F61 %29.88 in10.0 miENE (70°)8.1 mphClear
8:52 PM70.0 °F57.0 °F63 %29.89 in10.0 miENE (60°)9.2 mphPartly Cloudy
9:52 PM70.0 °F57.9 °F65 %29.90 in10.0 miEast (100°)8.1 mphClear
10:52 PM70.0 °F57.9 °F65 %29.87 in10.0 miEast (100°)10.4 mphOvercast
11:52 PM68.0 °F60.1 °F76 %29.91 in10.0 miSSW (210°)6.9 mph0.00 inRainLight Rain
Hourly data recorded from KRAP, located miles away from Rapid City, South Dakota







STORIES FROM OUR PARTNERS